TimeCDT,TemperatureF,Dew PointF,Humidity,Sea Level PressureIn,VisibilityMPH,Wind Direction,Wind SpeedMPH,Gust SpeedMPH,PrecipitationIn,Events,Conditions,WindDirDegrees,DateUTC
12:54 AM,75.0,52.0,44,29.64,10.0,SSW,16.1,31.1,N/A,,Clear,200,2013-04-30 05:54:00
1:54 AM,73.9,52.0,46,29.65,10.0,SSW,13.8,26.5,N/A,,Clear,200,2013-04-30 06:54:00
2:54 AM,72.0,53.1,51,29.65,10.0,SSW,16.1,23.0,N/A,,Clear,210,2013-04-30 07:54:00
3:54 AM,71.1,53.1,53,29.66,10.0,SSW,17.3,25.3,N/A,,Clear,200,2013-04-30 08:54:00
4:54 AM,70.0,53.1,55,29.68,10.0,SSW,13.8,24.2,N/A,,Clear,200,2013-04-30 09:54:00
5:54 AM,69.1,53.1,57,29.70,10.0,SSW,15.0,23.0,N/A,,Clear,200,2013-04-30 10:54:00
6:54 AM,69.1,54.0,58,29.71,10.0,SSW,17.3,24.2,N/A,,Clear,210,2013-04-30 11:54:00
7:54 AM,70.0,55.0,59,29.73,10.0,SSW,16.1,26.5,N/A,,Clear,210,2013-04-30 12:54:00
8:54 AM,73.9,53.1,48,29.73,10.0,SSW,21.9,27.6,N/A,,Clear,200,2013-04-30 13:54:00
9:54 AM,75.9,53.1,45,29.73,10.0,SSW,16.1,28.8,N/A,,Clear,210,2013-04-30 14:54:00
10:54 AM,79.0,52.0,39,29.73,10.0,SSW,17.3,24.2,N/A,,Clear,200,2013-04-30 15:54:00
11:54 AM,81.0,51.1,35,29.72,10.0,SSW,17.3,29.9,N/A,,Clear,210,2013-04-30 16:54:00
12:54 PM,82.9,52.0,34,29.72,10.0,SSW,20.7,27.6,N/A,,Clear,200,2013-04-30 17:54:00
1:54 PM,82.9,52.0,34,29.70,10.0,SW,12.7,23.0,N/A,,Clear,220,2013-04-30 18:54:00
2:54 PM,84.0,51.1,32,29.72,10.0,SSW,21.9,28.8,N/A,,Clear,200,2013-04-30 19:54:00
3:54 PM,82.9,54.0,37,29.71,10.0,SSW,17.3,-,N/A,,Clear,200,2013-04-30 20:54:00
4:54 PM,82.0,54.0,38,29.73,10.0,South,19.6,26.5,N/A,,Clear,170,2013-04-30 21:54:00
5:54 PM,81.0,50.0,34,29.73,10.0,South,20.7,26.5,N/A,,Clear,180,2013-04-30 22:54:00
6:54 PM,80.1,48.9,34,29.73,10.0,South,13.8,21.9,N/A,,Clear,190,2013-04-30 23:54:00
7:54 PM,77.0,50.0,39,29.74,10.0,South,10.4,-,N/A,,Clear,180,2013-05-01 00:54:00
8:54 PM,75.2,48.2,38,29.78,10.0,South,8.1,-,N/A,,Clear,180,2013-05-01 01:54:00
9:54 PM,73.0,50.0,44,29.79,10.0,South,6.9,-,N/A,,Clear,170,2013-05-01 02:54:00
10:54 PM,70.0,48.9,47,29.81,10.0,South,5.8,-,N/A,,Clear,180,2013-05-01 03:54:00
11:54 PM,71.6,48.2,43,29.82,10.0,South,9.2,-,N/A,,Clear,170,2013-05-01 04:54:00